Location: Pensacola
(30.4142°N, 87.2155°W)
Time: 07:19:45
(UTC-06:00)

Envisat - Visible Passes

Search period start: 21 February 2018 00:00
Search period end: 03 March 2018 00:00
Orbit: 764 x 766 km, 98.2° (Epoch: 21 February)

Date Brightness Start Highest point End Pass type
(mag) Time Alt. Az. Time Alt. Az. Time Alt. Az.
21 Feb 3.0 19:31:00 10° S 19:36:04 81° WSW 19:41:10 10° NNW visible
22 Feb 3.4 18:54:45 10° SE 18:59:28 40° ENE 19:04:12 10° N visible
22 Feb 5.5 20:35:19 10° SW 20:38:33 17° W 20:41:49 10° NW visible
23 Feb 4.4 18:19:50 10° ESE 18:23:03 17° ENE 18:26:16 10° NNE visible
23 Feb 4.1 19:56:53 10° S 20:01:40 42° W 20:06:28 10° NNW visible
24 Feb 2.8 19:19:53 10° SSE 19:24:57 77° ENE 19:30:02 10° N visible
25 Feb 3.7 18:43:59 10° SE 18:48:24 31° ENE 18:52:50 10° N visible
25 Feb 5.2 20:23:27 10° SSW 20:27:21 22° W 20:31:16 10° NW visible
26 Feb 4.7 18:09:44 10° E 18:12:02 13° ENE 18:14:21 10° NE visible
26 Feb 3.6 19:45:34 10° S 19:50:31 55° W 19:55:30 10° NNW visible
27 Feb 3.0 19:08:53 10° SSE 19:13:50 59° ENE 19:18:50 10° N visible
27 Feb 5.9 20:51:36 10° WSW 20:53:07 11° W 20:54:39 10° WNW visible
28 Feb 4.0 18:33:19 10° ESE 18:37:21 24° ENE 18:41:23 10° NNE visible
28 Feb 4.8 20:11:48 10° SSW 20:16:10 29° W 20:20:32 10° NW visible
01 Mar 3.1 19:34:20 10° S 19:39:22 73° WSW 19:44:27 10° NNW visible
02 Mar 3.2 18:57:57 10° SE 19:02:45 45° ENE 19:07:34 10° N visible
02 Mar 5.7 20:39:00 10° SW 20:41:54 15° W 20:44:49 10° WNW visible
